Commit Graph

  • 44aded493e chore: upgrade admin frontend naiba 2024-11-30 13:50:46 +08:00
  • 8b7d6be398 feat: update frontend naiba 2024-11-30 11:46:28 +08:00
  • a0878876b2 fix: windows path issue naiba 2024-11-30 00:02:45 +08:00
  • d62d0aa11c fix: home page 500 naiba 2024-11-29 22:49:17 +08:00
  • b78c92b2df fix: swago naiba 2024-11-29 21:55:29 +08:00
  • 037a131b66 fix: ci naiba 2024-11-29 21:42:18 +08:00
  • 970c0d0430 feat: embed dist naiba 2024-11-29 21:31:39 +08:00
  • fb99e88487 fix: aliyun docker url naiba 2024-11-29 00:58:20 +08:00
  • 1a827e04f4 ci: fix arm64 path parsing (#487) UUBulb 2024-11-29 00:31:20 +08:00
  • 1f663e1fd5 fix: typo naiba 2024-11-28 21:10:05 +08:00
  • 6606956d68 fix: type naiba 2024-11-28 20:45:03 +08:00
  • ade07f7450 chore: update readme naiba 2024-11-28 20:43:07 +08:00
  • ab4d896efc Revert "Fix code scanning alert no. 23: Uncontrolled data used in path expression (#486)" naiba 2024-11-28 20:38:02 +08:00
  • c2b3d19a51 Fix code scanning alert no. 23: Uncontrolled data used in path expression (#486) naiba 2024-11-28 20:26:51 +08:00
  • de57fbd262 chore(deps): bump github.com/golang-jwt/jwt/v4 from 4.5.0 to 4.5.1 (#485) dependabot[bot] 2024-11-28 20:23:41 +08:00
  • 1772de7c5e chore: dir perm naiba 2024-11-28 20:15:12 +08:00
  • e60db34091 update frontend naiba 2024-11-28 19:48:08 +08:00
  • 6ae78b13a2 Revert "ci: comment out costly things (#4)" naiba 2024-11-28 19:43:50 +08:00
  • 3cce7ebf01 rename repo naiba 2024-11-28 19:38:54 +08:00
  • 9d45bf6601 fix: server api schema (#23) UUBulb 2024-11-28 17:06:54 +08:00
  • 22ab32052e refactor: update release workflow to send and download artifacts to self-hosted storage naiba 2024-11-26 21:59:11 +08:00
  • 19e6344a81 [temp] use self-hosted storage naiba 2024-11-26 21:54:49 +08:00
  • e90941f52b send country code in ws, update profile api (#22) UUBulb 2024-11-26 21:30:56 +08:00
  • 07989705d2 fix: only close user/agentIo connect channel once (#21) UUBulb 2024-11-26 09:18:13 +08:00
  • 45f11483ec fix: update release workflow repository and enhance user deletion logic naiba 2024-11-25 22:24:33 +08:00
  • 0552b69b36 refactor: replace pflag with standard flag package in main.go naiba 2024-11-25 22:03:11 +08:00
  • f853cd9ec9 fix netip parsing (#20) UUBulb 2024-11-25 21:20:08 +08:00
  • 238ec25314 fix: ensure the configuration path exists (#19) UUBulb 2024-11-25 20:18:30 +08:00
  • 626a7d6059 apply upstream changes (#18) UUBulb 2024-11-24 01:07:14 +08:00
  • da3bac31a2 feat: release naiba 2024-11-23 22:06:08 +08:00
  • a590d3a56e update setting api (#17) UUBulb 2024-11-23 16:36:16 +08:00
  • 885330e948 update profile api (#16) UUBulb 2024-11-23 16:22:22 +08:00
  • 22738b6244 improve: use stream reduce auth check time naiba 2024-11-23 12:43:02 +08:00
  • cd42b1b9d5 fix: waf condition naiba 2024-11-23 10:21:01 +08:00
  • 867f840265 optimize sorting, fix a bug (#15) UUBulb 2024-11-23 01:13:39 +08:00
  • e7679a3fa6 refactor: ip data type naiba 2024-11-23 00:58:15 +08:00
  • 68f6da436d refactor code naiba 2024-11-23 00:02:57 +08:00
  • 58cc8aa5df Merge branch 'dev' of github.com:naiba/nezha-v1 into dev naiba 2024-11-22 23:57:48 +08:00
  • 17b02640a9 feat: waf 🤡 naiba 2024-11-22 23:57:25 +08:00
  • fc98c0919f report geoip separately, fix server creation & deletion bugs (#14) UUBulb 2024-11-22 22:40:43 +08:00
  • d699d0ee87 feat: grpc / web get real ip naiba 2024-11-22 00:19:36 +08:00
  • cde2ef3bd7 fix: file exists naiba 2024-11-20 23:14:17 +08:00
  • bf71ff4cff fix: add pat naiba 2024-11-20 23:10:11 +08:00
  • dc14a357b8 chore: fix typo naiba 2024-11-20 22:53:21 +08:00
  • d9102006f5 fix: download admin frontend naiba 2024-11-20 22:40:30 +08:00
  • 1bef03e036 chore: update frontend release naiba 2024-11-20 22:37:03 +08:00
  • 9905390ba6 add force update server api (#13) UUBulb 2024-11-20 21:36:21 +08:00
  • f6ecd26607 fix alert rule api (#12) UUBulb 2024-11-20 13:44:15 +08:00
  • a1bac6e525 remove id field in every form struct, fix cron & ddns db (#11) UUBulb 2024-11-19 23:34:56 +08:00
  • 3efbf9cce1 disable soft deletion in group api (#10) UUBulb 2024-11-19 21:41:21 +08:00
  • be79b11e58 allow cors from loopback addresses in debug mode (#9) UUBulb 2024-11-18 13:26:41 +08:00
  • 8eec79d54f fix service tags (#8) UUBulb 2024-11-16 21:27:39 +08:00
  • 288e1b75e9 fix struct tags (#7) UUBulb 2024-11-16 20:57:03 +08:00
  • 8640cbbf42 fix: add json tag for service response (#6) UUBulb 2024-11-16 09:08:18 +08:00
  • 3a09ec94e8 swag: add --requiredByDefault option (#5) UUBulb 2024-11-15 20:45:27 +08:00
  • 3168055948 ci: comment out costly things (#4) UUBulb 2024-11-10 07:09:38 +08:00
  • e15dddae73 fix: update refresh token endpoint to use hyphen naiba 2024-11-08 23:57:15 +08:00
  • 6322c22b49 feat: profile api naiba 2024-11-03 23:28:10 +08:00
  • 94e7e47375 Merge pull request #3 from uubulb/dev UUBulb 2024-11-03 21:14:10 +08:00
  • 49f05c1fc6 fix ReSortServer uubulb 2024-11-03 21:12:28 +08:00
  • 15cd1d8c85 😢 前端暂时无了 naiba 2024-11-01 21:23:06 +08:00
  • 05c5bcc6cb feat: add i18n support naiba 2024-11-01 21:14:00 +08:00
  • 40c811c143 remove old sources uubulb 2024-11-01 16:31:26 +08:00
  • d7012e36bf set c.Language to zh_CN if not specified uubulb 2024-11-01 14:36:14 +08:00
  • ca997cc994 add zh_TW locale, rename ssl to tls uubulb 2024-11-01 14:07:05 +08:00
  • 5114fc2854 feat: add i18n support uubulb 2024-11-01 05:07:04 +08:00
  • 482d787a56 Merge pull request #1 from uubulb/dev naiba 2024-10-31 08:47:26 +08:00
  • 6eb28d03b3 merge upstream, improve geoip pkg uubulb 2024-10-31 03:34:25 +08:00
  • 45b0f1edfc update contributors[no ci] github-actions[bot] 2024-10-30 16:15:58 +00:00
  • 61fdcd2a9e fix(cli): display version before init app (#463) Moraxyc 2024-10-31 00:15:41 +08:00
  • 29e2e2f7b2 fix: typo naiba 2024-10-30 23:31:04 +08:00
  • ae18401351 fix ci naiba 2024-10-30 23:22:37 +08:00
  • 175215698d fix ci naiba 2024-10-30 23:13:04 +08:00
  • 3b23717080 fix ci naiba 2024-10-30 22:50:51 +08:00
  • a474b8484b ddns: replace tencentcloud implemention (#462) UUBulb 2024-10-29 21:39:45 +08:00
  • 45fcbd029f format: json marshal naiba 2024-10-29 10:21:25 +08:00
  • 1e3c6b4a66 fix: migration naiba 2024-10-28 14:42:36 +08:00
  • 417f99d94f fix naiba 2024-10-27 14:49:33 +08:00
  • ff0ff9a9ee add "network page" api (#460) UUBulb 2024-10-27 14:43:37 +08:00
  • b4edb4cc95 add setting api (#461) UUBulb 2024-10-27 13:10:07 +08:00
  • 68d7e16773 add cron, nat api & refactor alert rule (#459) UUBulb 2024-10-26 23:57:47 +08:00
  • ebc4fad9bc add alert api (#458) UUBulb 2024-10-26 08:16:57 +08:00
  • 8c452bdaa9 update admin-dist repo naiba 2024-10-25 22:58:29 +08:00
  • 380973a200 prevent writing response to websocket connections (#457) UUBulb 2024-10-25 21:45:05 +08:00
  • d086e98711 add fm api (#456) UUBulb 2024-10-25 09:09:08 +08:00
  • fa9d02396b fix: swagger doc naiba 2024-10-25 00:19:44 +08:00
  • eae12d8df2 refactor: rename monitor -> service naiba 2024-10-25 00:13:45 +08:00
  • d4be2a0bcf fix dist folder naiba 2024-10-24 22:50:57 +08:00
  • 33ec746a54 fix: tag name naiba 2024-10-24 22:44:13 +08:00
  • 0b6d0977ac feat: update admin-dist naiba 2024-10-24 22:35:26 +08:00
  • 7282882269 fix: release naiba 2024-10-24 22:25:12 +08:00
  • d16c1ed3c2 list go bin naiba 2024-10-24 22:19:51 +08:00
  • 79682034e2 fix ci naiba 2024-10-24 22:15:37 +08:00
  • 5cf8b8024c feat: dev docker naiba 2024-10-24 21:33:36 +08:00
  • 31520debb2 update grpc-go & protobuf definition (#455) UUBulb 2024-10-24 20:41:47 +08:00
  • c632d41702 fix swaggo (#454) UUBulb 2024-10-24 14:11:06 +08:00
  • 7c784b31b7 fix list apis (#453) UUBulb 2024-10-24 10:21:59 +08:00
  • 6b650169df 🚀 monitor api naiba 2024-10-23 23:06:11 +08:00
  • 61e755d2b9 implement notification group (#450) UUBulb 2024-10-23 21:55:12 +08:00
  • e792215f6e Merge branch 'master' into dev naiba 2024-10-23 21:44:54 +08:00